This demonstration page uses our WeatherBlox Daily Observations layout. Learn more.

Left ArrowRight Arrow

44.8408, -93.29828

Hourly Observations for September 25, 2020

Temp ( °F °C ) Dew Point ( °F °C ) Humidity (%) Winds ( mph kmh ) Pressure ( in mb ) Visibility ( mi km ) Precip ( " mm )
12:53 am 00:53 Mostly Clear 62 16.7 60 15.6 93 93 SE 8 13 29.81 1010 9 14 0.00 0.00
1:53 am 01:53 Clear 61 16.1 60 15.6 97 97 SE 8 13 29.80 1009 8 13 0.00 0.00
2:53 am 02:53 Clear with Mist and Fog 60 15.6 59 15 96 96 SE 5 7 29.79 1009 5 8 0.00 0.00
3:53 am 03:53 Clear with Mist and Fog 60 15.6 59 15 96 96 SE 6 9 29.78 1009 4 6 0.00 0.00
4:53 am 04:53 Clear with Mist and Fog 60 15.6 59 15 96 96 SE 8 13 29.77 1008 5 8 0.00 0.00
5:53 am 05:53 Mostly Clear with Mist and Fog 59 15 58 14.4 96 96 SE 5 7 29.77 1008 5 8 0.00 0.00
6:53 am 06:53 Mostly Clear 59 15 58 14.4 96 96 SE 6 9 29.76 1008 8 13 0.00 0.00
7:53 am 07:53 Partly Cloudy 60 15.6 58 14.4 93 93 SE 7 11 29.77 1008 8 13 0.00 0.00
8:09 am 08:09 Partly Cloudy 60 15.6 58 14.4 93 93 SE 8 13 29.76 1008 8 13 0.00 0.00
8:53 am 08:53 Partly Cloudy 62 16.7 59 15 90 90 SE 8 13 29.75 1007 10 16 0.00 0.00
9:53 am 09:53 Mostly Cloudy 65 18.3 61 16.1 87 87 SSE 8 13 29.73 1007 10 16 0.00 0.00
10:53 am 10:53 Partly Cloudy 70 21.1 63 17.2 79 79 SSE 13 20 29.71 1006 10 16 0.00 0.00
11:53 am 11:53 Mostly Sunny 74 23.3 63 17.2 69 69 S 10 17 29.68 1005 10 16 0.00 0.00
12:53 pm 12:53 Partly Cloudy 77 25 64 17.8 64 64 S 12 19 29.67 1005 10 16 0.00 0.00
1:53 pm 13:53 Partly Cloudy 81 27.2 64 17.8 57 57 S 16 26 29.62 1003 10 16 0.00 0.00
2:53 pm 14:53 Mostly Cloudy 83 28.3 64 17.8 53 53 SSW 16 26 29.63 1003 10 16 0.00 0.00
3:53 pm 15:53 Mostly Cloudy 83 28.3 65 18.3 55 55 S 8 13 29.61 1003 10 16 0.00 0.00
4:53 pm 16:53 Mostly Cloudy 83 28.3 64 17.8 53 53 W 13 20 29.61 1003 10 16 0.00 0.00
5:53 pm 17:53 Mostly Cloudy 80 26.7 61 16.1 52 52 WNW 17 28 29.64 1004 10 16 0.00 0.00
6:53 pm 18:53 Partly Cloudy 75 23.9 61 16.1 62 62 W 12 19 29.67 1005 10 16 0.00 0.00
7:53 pm 19:53 Mostly Clear 73 22.8 60 15.6 64 64 W 7 11 29.68 1005 10 16 0.00 0.00
8:53 pm 20:53 Mostly Clear 69 20.6 60 15.6 73 73 WNW 8 13 29.69 1006 10 16 0.00 0.00
9:53 pm 21:53 Mostly Clear 69 20.6 60 15.6 73 73 W 7 11 29.69 1005 10 16 0.00 0.00
10:53 pm 22:53 Mostly Clear 68 20 60 15.6 76 76 W 7 11 29.70 1006 10 16 0.00 0.00
11:53 pm 23:53 Cloudy 67 19.4 60 15.6 79 79 W 5 7 29.71 1006 10 16 0.00 0.00

Powered by AerisWeather